Weather History for Scappoose, OR

Change the Weather History Date:

Monday, July 22, 2013

  Actual Average Record
Temperature  
Mean Temperature 70 °F -  
Max Temperature 82 °F - 98 °F (2002)
Min Temperature 57 °F - 43 °F (2011)
Degree Days  
Heating Degree Days 0    
Month to date heating degree days 14  
Since 1 June heating degree days 116  
Since 1 July heating degree days 14  
Cooling Degree Days 5    
Month to date cooling degree days 102  
Year to date cooling degree days 156  
Since 1 June cooling degree days 148  
Growing Degree Days 20 (Base 50)    
Moisture  
Dew Point 54 °F    
Average Humidity 62    
Maximum Humidity 86    
Minimum Humidity 37    
Precipitation  
Precipitation 0.00 in - 0.28 in (2005)
Month to date precipitation T  
Year to date precipitation 13.89  
Sea Level Pressure  
Sea Level Pressure 30.00 in    
Wind  
Wind Speed 7 mph (North)    
Max Wind Speed 16 mph    
Max Gust Speed 21 mph    
Visibility 10 miles    
Events      
T = Trace of Precipitation, MM = Missing Value Source: NWS Daily Summary

Daily Weather History Graph

Daily Weather History Graph

Search for Another Location

Airport:

Trip Planner

Search our weather history database for the weather conditions in past years. The results will help you decide how hot, cold, wet, or windy it might be!

Date:

Astronomy

Jul. 22, 2013 Rise Set
Actual Time 5:43 AM PDT 8:51 PM PDT
Civil Twilight 5:07 AM PDT 9:27 PM PDT
Nautical Twilight 4:21 AM PDT 10:13 PM PDT
Astronomical Twilight 3:25 AM PDT 11:09 PM PDT
Moon 8:35 PM PDT (7/22) 5:50 AM PDT (7/22)
Length of Visible Light 16h 19m
Length of Day
15h 07m
Full, 100% of the Moon is Illuminated
Jul 22
Full
Jul 29
Last Quarter
Aug 6
New
Aug 14
First Quarter
Aug 20
Full

Hourly Weather History & Observations

Time (PDT) Temp. Heat Index Dew Point Humidity Pressure Visibility Wind Dir Wind Speed Gust Speed Precip Events Conditions
12:53 AM 57.9 °F - 54.0 °F 87% 29.96 in 10.0 mi NNE 6.9 mph - N/A   Clear
1:53 AM 57.9 °F - 53.1 °F 84% 29.97 in 10.0 mi NNE 6.9 mph - N/A   Partly Cloudy
2:09 AM 57.2 °F - 53.6 °F 88% 29.97 in 10.0 mi NNE 5.8 mph - N/A   Mostly Cloudy
2:53 AM 57.9 °F - 52.0 °F 81% 29.98 in 10.0 mi Variable 4.6 mph - N/A   Overcast
3:23 AM 57.2 °F - 51.8 °F 82% 29.98 in 10.0 mi North 8.1 mph - N/A   Scattered Clouds
3:45 AM 57.2 °F - 51.8 °F 82% 29.99 in 10.0 mi North 5.8 mph - N/A   Mostly Cloudy
3:53 AM 57.0 °F - 51.1 °F 81% 29.99 in 10.0 mi North 5.8 mph - N/A   Mostly Cloudy
4:53 AM 57.9 °F - 51.1 °F 78% 30.00 in 10.0 mi NNW 4.6 mph - N/A   Overcast
5:53 AM 57.9 °F - 51.1 °F 78% 30.01 in 10.0 mi North 4.6 mph - N/A   Overcast
6:53 AM 59.0 °F - 51.1 °F 75% 30.02 in 10.0 mi NNW 5.8 mph - N/A   Overcast
7:53 AM 59.0 °F - 50.0 °F 72% 30.04 in 10.0 mi North 8.1 mph - N/A   Overcast
8:53 AM 60.1 °F - 51.1 °F 72% 30.05 in 10.0 mi North 6.9 mph - N/A   Overcast
9:11 AM 60.8 °F - 51.8 °F 72% 30.05 in 10.0 mi NNW 6.9 mph - N/A   Scattered Clouds
9:53 AM 64.9 °F - 53.1 °F 65% 30.05 in 10.0 mi North 9.2 mph - N/A   Partly Cloudy
10:53 AM 66.9 °F - 53.1 °F 61% 30.05 in 10.0 mi NNE 9.2 mph 16.1 mph N/A   Clear
11:53 AM 69.1 °F - 54.0 °F 58% 30.05 in 10.0 mi Variable 4.6 mph - N/A   Clear
12:53 PM 72.0 °F - 55.9 °F 57% 30.03 in 10.0 mi Variable 4.6 mph - N/A   Clear
1:53 PM 75.9 °F - 55.9 °F 50% 30.02 in 10.0 mi Variable 6.9 mph - N/A   Clear
2:53 PM 78.1 °F - 55.9 °F 46% 30.01 in 10.0 mi North 9.2 mph - N/A   Clear
3:53 PM 81.0 °F 80.7 °F 55.0 °F 41% 29.98 in 10.0 mi NNE 10.4 mph - N/A   Clear
4:53 PM 82.0 °F 81.3 °F 54.0 °F 38% 29.97 in 10.0 mi North 13.8 mph - N/A   Clear
5:53 PM 81.0 °F 80.8 °F 55.9 °F 42% 29.96 in 10.0 mi NNW 10.4 mph 17.3 mph N/A   Clear
6:53 PM 79.0 °F - 57.0 °F 47% 29.95 in 10.0 mi NNW 12.7 mph - N/A   Clear
7:53 PM 75.9 °F - 57.9 °F 54% 29.95 in 10.0 mi NNW 9.2 mph - N/A   Clear
8:53 PM 73.0 °F - 57.9 °F 59% 29.96 in 10.0 mi NNW 8.1 mph - N/A   Clear
9:53 PM 71.1 °F - 57.9 °F 63% 29.98 in 10.0 mi NNW 6.9 mph - N/A   Clear
10:53 PM 68.0 °F - 57.0 °F 68% 29.99 in 10.0 mi NNW 4.6 mph - N/A   Clear
11:53 PM 66.0 °F - 57.0 °F 73% 29.99 in 10.0 mi NNW 3.5 mph - N/A   Clear